STARLINK-11554, 62833

Orbit data source: Space-Track

STARLINK-11554, 62833 is a payload satellite owned by SpaceX/Seattle (US) in LEO that was launched on Mon, 27 Jan 2025 UTC via an FALCON 9 launch vehicle from the Air Force Eastern Test Range (AFETR). Payload-class satellites include a variety of spacecraft equipped with specific instruments for various scientific and technological missions. These include communications satellites like Starlink; space stations such as the ISS; scientific satellites like the Hubble; Earth observation satellites from companies like Planet Labs, Umbra, and HawkEye 360; GPS; miniature CubeSats for education and research; and military/defense satellites.

Loading next visibility...
Identifier
62833, 2025-019E
Orbit
LEO
Country
Flag of USUS
Related business
Manufacturer
SpaceX/Seattle
Mission
Operational Commercial Communications
Bus & Motor
STARLINK V2MD, Unknown motor
Mass
960 kg wet, ~910 kg dry
Launch date (UTC)
2025-01-27 (1 year ago)
Launch vehicle
FALCON 9
Launch site
Air Force Eastern Test Range (AFETR)
Object type
Payload
Rocket body
Debris
Shape & HBR
Box + 2 Pan, 18.1 m
Radar Cross Section
36.964 m², Large (>1 m²)

Expand to show TLE details & history
Last TLE update: 10 hours ago

TLE from 10 hours ago
0 STARLINK-11554
1 62833U 25019E   26127.86224964  .00162942  00000-0  12456-2 0  9992
2 62833  43.0001 309.6169 0002592 276.2863  83.7710 15.70895426 73180
Epoch: 2026-05-07T20:41Z
TLE epoch observation values (Epoch: 2026-05-07T20:41:38.368Z)
Latitude
0.00001°
Longitude
133.50474°
Altitude
355.919 km
Speed
7.698 km/s
True Right ascension
20h 38m 28s
True Declination
0° 00' 00"
Sunlit
Object was in daylight at epoch
Visualization orbit readout
Latitude
Unknown
Longitude
Unknown
Altitude
Unknown
Speed
Unknown
Apparent Right ascension
Unknown
Apparent Declination
Unknown
Sunlit
N/A
Visualization observer readout
Local Sidereal Time
15:00:34
Azimuth
Unknown
Elevation
Unknown
Doppler factor
Unknown
Orbital elements
Apogee altitude
360.064 km
Perigee altitude
356.572 km
Semi-major axis
6,736.455 km
Eccentricity
0.00026
Inclination
43.0001°
RAAN
309.6169°
Arg. of periapsis
276.2863°
True anomaly
83.80053°
Mean anomaly
83.771°
Eccentric anomaly
83.78576°
Mean motion
3.92551 °/min
Orbital period
91.71 mins
BSTAR
0.0012456
Loading maneuver chart data...
Computing Atmospheric mass density...
Loading historical data...
Loading historical data...
Loading historical data...
Loading historical data...
Loading historical data...
Loading historical data...
Loading historical data...

Documentation

Showing up to 5 results
|